Starlink 32265

operational
NORAD ID: 60415 Int'l Des: 2024-141 Owner: SPXS Country: US Constellation: starlink
LEOCIRCULAR

关于 Starlink 32265

正在加载描述...

实时位置

正在加载3D地球...

即将过境

高度历史

Altitude vs Time

uPlot chart will show altitude changes over time

两行轨道根数

1 60415U 24141T 25259.19801746 -.00000977 00000-0 -20865-4 0 9997
2 60415 53.1615 333.1905 0000892 94.9875 265.1228 15.30207756 62868
Epoch: Sep 16, 2025 • Age: 11 hours

当前状态

高度 480.7 km
速度 7.63 km/s
星下点 51.40°N, 156.43°W
发射日期 Aug 10, 2024
运行时间 1.1 years
类型 internet

技术详情

分类 Payload
质量 730.00 kg
干质量 700.00 kg
总质量 730.00 kg
长度 0.30 m
直径 4.10 m
跨度 29.00 m
形状 Box + pan
制造商 SPXS
平台类型 Starlink V2M
阶段状态 In Orbit
所有者/国家 SPXS/US

大型星座

Loading constellations...